Location: Boca do Mato
(22.9085°S, 43.2930°W)
Time: 10:52:53
(UTC+00:00)

Cosmos 2266 Rocket - Pass Details

Date: 07 November 2020
Orbit: 935 x 1007 km, 82.9° (Epoch: 28 November)

Event Time Altitude Azimuth Distance (km) Brightness Sun altitude
Rises 07:01:25 0° 183° (S) 3,640 7.3 -14.3°
Reaches altitude 10° 07:03:57 10° 181° (S) 2,681 6.6 -13.8°
Maximum altitude 07:10:04 78° 95° (E) 965 4.1 -12.5°
Drops below altitude 10° 07:16:04 10° 8° (N) 2,636 6.1 -11.2°
Sets 07:18:32 0° 7° (N) 3,574 6.8 -10.7°
